Location: Dehesa de la Cepeda
(40.6574°N, 4.3013°W)
Time: 10:37:47
(UTC+00:00)

Vanguard 2 Rocket - Pass Details

Date: 27 October 2021
Orbit: 555 x 3324 km, 32.9° (Epoch: 08 December)

Event Time Altitude Azimuth Distance (km) Brightness Sun altitude
Exits shadow 01:51:16 19° 145° (SE) 4,944 10.5 -53.2°
Maximum altitude 01:51:20 19° 145° (SE) 4,940 10.5 -53.2°
Drops below altitude 10° 02:00:38 10° 107° (ESE) 5,000 10.9 -51.8°
Sets 02:05:29 0° 91° (E) 5,541 11.4 -51.1°
